Weather History for KMGN - December, 2013

Change the Weather History Date:

Friday, December 13, 2013

  Actual Average (KPLN) Record (KPLN)
Temperature  
Mean Temperature 11 °F -  
Max Temperature 19 °F 32 °F 48 °F (1993)
Min Temperature 3 °F 18 °F -16 °F (1960)
Degree Days  
Heating Degree Days 54    
Moisture  
Dew Point 3 °F    
Average Humidity 69    
Maximum Humidity 80    
Minimum Humidity 60    
Precipitation  
Precipitation 0.00 in - - ()
Sea Level Pressure  
Sea Level Pressure 30.22 in    
Wind  
Wind Speed 10 mph (NE)    
Max Wind Speed 16 mph    
Max Gust Speed 28 mph    
Visibility 10 miles    
Events Snow    
Averages and records for this station are not official NWS values.
T = Trace of Precipitation, MM = Missing Value Source: NWS Daily Summary

Daily Weather History Graph

Daily Weather History Graph

Search for Another Location

Airport or City:

Trip Planner

Search our weather history database for the weather conditions in past years. The results will help you decide how hot, cold, wet, or windy it might be!

Date:

Astronomy

Dec. 13, 2013 Rise Set
Actual Time 8:11 AM EST 4:56 PM EST
Civil Twilight 7:37 AM EST 5:30 PM EST
Nautical Twilight 6:59 AM EST 6:08 PM EST
Astronomical Twilight 6:23 AM EST 6:44 PM EST
Moon 2:45 PM EST (12/13) 4:25 AM EST (12/13)
Length of Visible Light 9h 53m
Length of Day
8h 45m
Waxing Gibbous, 88% of the Moon is Illuminated
Dec 13
Waxing Gibbous
Dec 17
Full
Dec 25
Last Quarter
Jan 1
New
Jan 7
First Quarter

Hourly Weather History & Observations

Time (EST) Temp. Windchill Dew Point Humidity Pressure Visibility Wind Dir Wind Speed Gust Speed Precip Events Conditions
12:15 AM 19.8 °F 6.5 °F 10.0 °F 66% 29.99 in 7.0 mi West 13.8 mph 25.3 mph N/A   Overcast
12:35 AM 19.4 °F 5.5 °F 9.7 °F 66% 30.00 in 10.0 mi West 15.0 mph 27.6 mph N/A   Overcast
12:54 AM 19.2 °F 5.8 °F 9.5 °F 66% 30.00 in 10.0 mi West 13.8 mph 21.9 mph N/A   Overcast
1:15 AM 19.4 °F 10.4 °F 10.0 °F 67% 30.00 in 10.0 mi West 6.9 mph 21.9 mph N/A   Overcast
1:35 AM 19.4 °F 5.0 °F 10.2 °F 68% 30.01 in 10.0 mi West 16.1 mph 21.9 mph N/A   Overcast
1:54 AM 19.4 °F 7.9 °F 10.0 °F 67% 30.02 in 10.0 mi WNW 10.4 mph 19.6 mph N/A   Overcast
2:15 AM 19.0 °F 8.2 °F 9.7 °F 67% 30.02 in 10.0 mi West 9.2 mph 17.3 mph N/A   Overcast
2:34 AM 18.5 °F 6.8 °F 9.5 °F 68% 30.03 in 10.0 mi WNW 10.4 mph 23.0 mph N/A   Overcast
2:55 AM 18.5 °F 4.9 °F 9.3 °F 67% 30.04 in 10.0 mi West 13.8 mph 23.0 mph N/A   Overcast
3:15 AM 18.5 °F 5.5 °F 9.5 °F 68% 30.04 in 10.0 mi WNW 12.7 mph 21.9 mph N/A   Overcast
3:34 AM 18.5 °F 5.5 °F 9.1 °F 67% 30.05 in 10.0 mi West 12.7 mph 20.7 mph N/A   Overcast
3:55 AM 18.5 °F 3.8 °F 9.5 °F 68% 30.06 in 7.0 mi WNW 16.1 mph 23.0 mph N/A Snow Light Snow
4:15 AM 17.2 °F 4.5 °F 8.6 °F 69% 30.07 in 7.0 mi WNW 11.5 mph 20.7 mph N/A   Overcast
4:34 AM 16.9 °F 5.5 °F 7.2 °F 66% 30.07 in 10.0 mi WNW 9.2 mph 20.7 mph N/A   Overcast
4:55 AM 16.3 °F 5.7 °F 5.9 °F 64% 30.07 in 10.0 mi WNW 8.1 mph 19.6 mph N/A   Overcast
5:15 AM 16.3 °F 5.7 °F 5.4 °F 62% 30.08 in 10.0 mi WNW 8.1 mph - N/A   Overcast
5:35 AM 15.8 °F 4.2 °F 7.7 °F 70% 30.09 in 5.0 mi NW 9.2 mph 20.7 mph N/A Snow Light Snow
5:55 AM 15.8 °F 7.2 °F 7.7 °F 70% 30.10 in 10.0 mi NNW 5.8 mph - N/A   Overcast
6:14 AM 15.8 °F 6.1 °F 7.3 °F 69% 30.11 in 10.0 mi NNW 6.9 mph - N/A   Overcast
6:35 AM 15.6 °F 4.0 °F 4.5 °F 61% 30.12 in 10.0 mi NW 9.2 mph 17.3 mph N/A   Overcast
6:55 AM 14.9 °F 3.1 °F 3.7 °F 61% 30.13 in 10.0 mi WNW 9.2 mph - N/A   Mostly Cloudy
7:14 AM 14.9 °F 7.5 °F 3.4 °F 60% 30.14 in 10.0 mi NW 4.6 mph - N/A   Overcast
7:35 AM 13.1 °F -2.0 °F 5.2 °F 71% 30.16 in 7.0 mi NE 13.8 mph - N/A Snow Light Snow
7:55 AM 10.0 °F -2.9 °F 4.5 °F 78% 30.17 in 5.0 mi NE 9.2 mph - N/A   Haze
8:14 AM 9.1 °F -3.0 °F 3.6 °F 78% 30.18 in 10.0 mi NE 8.1 mph - N/A   Overcast
8:35 AM 8.6 °F -4.7 °F 3.2 °F 79% 30.19 in 10.0 mi ENE 9.2 mph - N/A   Overcast
8:55 AM 8.8 °F -3.5 °F 3.4 °F 79% 30.20 in 10.0 mi ENE 8.1 mph - N/A   Overcast
9:14 AM 8.4 °F -3.9 °F 2.8 °F 78% 30.21 in 10.0 mi ENE 8.1 mph - N/A   Overcast
9:35 AM 8.4 °F -2.8 °F 2.3 °F 76% 30.22 in 10.0 mi ENE 6.9 mph - N/A   Overcast
9:55 AM 8.6 °F -4.7 °F 1.9 °F 74% 30.23 in 10.0 mi ENE 9.2 mph - N/A   Overcast
10:14 AM 8.6 °F -3.7 °F 1.8 °F 74% 30.24 in 10.0 mi ENE 8.1 mph - N/A   Mostly Cloudy
10:35 AM 8.6 °F -4.7 °F 1.4 °F 73% 30.24 in 10.0 mi ENE 9.2 mph - N/A   Scattered Clouds
10:55 AM 9.0 °F -4.2 °F 0.9 °F 70% 30.24 in 10.0 mi ENE 9.2 mph - N/A   Clear
11:14 AM 9.5 °F -3.5 °F 1.8 °F 71% 30.24 in 10.0 mi ENE 9.2 mph - N/A   Clear
11:35 AM 8.6 °F -6.3 °F 1.0 °F 71% 30.24 in 10.0 mi ESE 11.5 mph - N/A   Clear
11:55 AM 8.4 °F -3.9 °F 1.2 °F 73% 30.25 in 10.0 mi East 8.1 mph - N/A   Scattered Clouds
12:15 PM 8.4 °F -5.7 °F 0.5 °F 70% 30.24 in 10.0 mi East 10.4 mph - N/A   Mostly Cloudy
12:35 PM 8.4 °F -4.9 °F 0.3 °F 70% 30.24 in 10.0 mi ENE 9.2 mph - N/A   Mostly Cloudy
12:55 PM 9.0 °F -3.2 °F 0.1 °F 67% 30.24 in 10.0 mi East 8.1 mph - N/A   Clear
1:15 PM 10.0 °F -1.9 °F 0.3 °F 65% 30.25 in 10.0 mi ENE 8.1 mph - N/A   Scattered Clouds
1:35 PM 10.6 °F -0.2 °F 1.4 °F 67% 30.25 in 10.0 mi East 6.9 mph - N/A   Mostly Cloudy
1:55 PM 10.9 °F 2.9 °F 1.4 °F 65% 30.26 in 10.0 mi East 4.6 mph - N/A   Scattered Clouds
2:15 PM 10.9 °F 1.4 °F 1.2 °F 65% 30.26 in 10.0 mi East 5.8 mph - N/A   Clear
2:35 PM 10.9 °F 1.4 °F 1.0 °F 64% 30.26 in 10.0 mi East 5.8 mph - N/A   Clear
2:54 PM 10.9 °F 0.2 °F 1.0 °F 64% 30.26 in 10.0 mi ENE 6.9 mph - N/A   Clear
3:15 PM 11.3 °F 0.7 °F 0.3 °F 61% 30.27 in 10.0 mi East 6.9 mph - N/A   Mostly Cloudy
3:35 PM 11.1 °F -0.6 °F -0.4 °F 60% 30.28 in 10.0 mi ENE 8.1 mph - N/A   Overcast
3:54 PM 10.9 °F 1.4 °F -0.4 °F 60% 30.27 in 10.0 mi ENE 5.8 mph - N/A   Scattered Clouds
4:15 PM 10.4 °F 0.8 °F -0.2 °F 62% 30.29 in 10.0 mi ENE 5.8 mph - N/A   Scattered Clouds
4:35 PM 8.8 °F -2.4 °F -0.4 °F 66% 30.29 in 10.0 mi ENE 6.9 mph - N/A   Scattered Clouds
4:54 PM 8.6 °F -2.6 °F -0.4 °F 67% 30.30 in 10.0 mi NE 6.9 mph - N/A   Scattered Clouds
5:15 PM 8.4 °F -3.9 °F -0.4 °F 67% 30.32 in 10.0 mi ENE 8.1 mph - N/A   Overcast
5:35 PM 8.4 °F -3.9 °F 0.3 °F 70% 30.32 in 10.0 mi NE 8.1 mph - N/A   Overcast
5:54 PM 8.4 °F -1.6 °F 0.5 °F 70% 30.33 in 10.0 mi East 5.8 mph - N/A   Mostly Cloudy
6:15 PM 7.5 °F -1.1 °F -0.2 °F 71% 30.33 in 10.0 mi ENE 4.6 mph - N/A   Clear
6:35 PM 6.4 °F -2.4 °F -0.9 °F 72% 30.34 in 10.0 mi East 4.6 mph - N/A   Clear
6:54 PM 5.9 °F -3.0 °F -1.3 °F 72% 30.35 in 10.0 mi East 4.6 mph - N/A   Clear
7:15 PM 5.9 °F -4.5 °F -1.5 °F 72% 30.35 in 10.0 mi NE 5.8 mph - N/A   Clear
7:35 PM 5.9 °F -3.0 °F -1.3 °F 72% 30.35 in 10.0 mi NE 4.6 mph - N/A   Clear
7:54 PM 5.9 °F - -1.3 °F 72% 30.36 in 10.0 mi Calm Calm - N/A   Clear
8:15 PM 5.9 °F -1.1 °F -1.3 °F 72% 30.37 in 10.0 mi NE 3.5 mph - N/A   Clear
8:35 PM 5.9 °F -3.0 °F -1.5 °F 72% 30.37 in 10.0 mi NNE 4.6 mph - N/A   Clear
8:54 PM 5.9 °F -1.1 °F -1.3 °F 72% 30.37 in 10.0 mi NE 3.5 mph - N/A   Clear
9:15 PM 5.9 °F -3.0 °F -1.5 °F 72% 30.37 in 10.0 mi NE 4.6 mph - N/A   Clear
9:35 PM 5.9 °F -4.5 °F -1.8 °F 70% 30.37 in 10.0 mi NE 5.8 mph - N/A   Clear
9:54 PM 6.3 °F -4.1 °F -1.7 °F 70% 30.37 in 10.0 mi ENE 5.8 mph - N/A   Clear
10:15 PM 5.9 °F - -1.7 °F 71% 30.37 in 10.0 mi Calm Calm - N/A   Clear
10:35 PM 5.9 °F -1.1 °F -0.8 °F 74% 30.37 in 10.0 mi East 3.5 mph - N/A   Clear
10:54 PM 4.8 °F -4.3 °F -1.1 °F 76% 30.38 in 10.0 mi East 4.6 mph - N/A   Clear
11:15 PM 3.2 °F -4.2 °F -2.0 °F 79% 30.39 in 10.0 mi East 3.5 mph - N/A   Clear
11:35 PM 3.0 °F -4.4 °F -2.0 °F 80% 30.39 in 10.0 mi ENE 3.5 mph - N/A   Clear
11:54 PM 3.0 °F -6.4 °F -2.0 °F 80% 30.39 in 10.0 mi ENE 4.6 mph - N/A   Clear